sat.trackr.live / text

‹ back to catalog

STARLINK-37401

NORAD 68784 · 2026-086U

PAYLOAD ACTIVE UNKNOWN

§ Identity

Operator
Country
US
Launch date
2026-04-19
Launch site
AFWTR
Launch vehicle
Mass (kg)
RCS (m²)

Purposes: comms

External: N2YO · Heavens-Above · Gunter

§ Orbital elements

Epoch: 2026-09-19T00:56:55.952736Z

Period
93.91 min
Inclination
97.2849°
Eccentricity
0.0001285
Mean motion
15.33434897 rev/d
Perigee alt
464.7 km
Apogee alt
466.5 km
Semi-major
6,843.7 km
B*
3.7699e-4
RAAN
297.5254°
Arg perigee
88.0752°
Mean anomaly
272.0638°
Rev number
2,346

§ Raw data

STARLINK-374011 68784U 26086U   26262.03953649  .00012111  00000+0  37699-3 0  99942 68784  97.2849 297.5254 0001285  88.0752 272.0638 15.33434897 23464

JSON: /api/v1/satellites/68784 · /tle

For live sub-satellite position, see the globe view (requires WebGL).

§ Visibility from observer

Set your observer location to see the next 7 days of passes ≥ 10°. The values pass through the URL so the page stays shareable.

No JS? Fill the form by hand. The geolocation button needs JavaScript.